This is the latest recevied weather packets stored in our database for station/object E24CR-1. If no packets are shown the sender has not sent any weather packets the latest 10 day(s).
| Time | Temp. | Humidity | Pressure | Rain* | Wind** | Luminosity | Snow |
|---|---|---|---|---|---|---|---|
| 1777943250 | 27.22° C | 75% | 955 hPa | - | - | 0 W/m² | - |
| 1777942626 | 26.67° C | 79% | 955 hPa | - | - | 0 W/m² | - |
| 1777942002 | 26.67° C | 80% | 954 hPa | - | - | 0 W/m² | - |
| 1777941378 | 26.67° C | 81% | 954 hPa | - | - | 0 W/m² | - |
| 1777940753 | 26.11° C | 83% | 954 hPa | - | - | 0 W/m² | - |
| 1777940128 | 26.11° C | 84% | 954 hPa | - | - | 0 W/m² | - |
| 1777939489 | 25.56° C | 82% | 954 hPa | - | - | 0 W/m² | - |
| 1777938865 | 25.56° C | 82% | 954 hPa | - | - | 0 W/m² | - |
| 1777938241 | 25.56° C | 79% | 954 hPa | - | - | 0 W/m² | - |
| 1777937616 | 25.56° C | 79% | 954 hPa | - | - | 0 W/m² | - |
| 1777936992 | 25° C | 81% | 954 hPa | - | - | 0 W/m² | - |
| 1777936368 | 25° C | 82% | 953 hPa | - | - | 0 W/m² | - |
| 1777935744 | 24.44° C | 84% | 953 hPa | - | - | 0 W/m² | - |
| 1777935122 | 24.44° C | 86% | 953 hPa | - | - | 0 W/m² | - |
| 1777934496 | 24.44° C | 84% | 953 hPa | - | - | 0 W/m² | - |
| 1777933871 | 24.44° C | 82% | 953 hPa | - | - | 0 W/m² | - |
| 1777933237 | 25° C | 79% | 952 hPa | - | - | 0 W/m² | - |
| 1777932613 | 25° C | 78% | 953 hPa | - | - | 0 W/m² | - |
| 1777931989 | 25° C | 78% | 953 hPa | - | - | 0 W/m² | - |
| 1777931365 | 25.56° C | 75% | 952 hPa | - | - | 0 W/m² | - |
| 1777930741 | 25.56° C | 78% | 952 hPa | - | - | 0 W/m² | - |
| 1777930116 | 25.56° C | 79% | 952 hPa | - | - | 0 W/m² | - |
| 1777929492 | 24.44° C | 81% | 952 hPa | - | - | 0 W/m² | - |
| 1777928868 | 24.44° C | 84% | 953 hPa | - | - | 0 W/m² | - |
| 1777928244 | 24.44° C | 79% | 953 hPa | - | - | 0 W/m² | - |
* Rain since midnight (hover to see other rain measurements)
** Current wind speed in m/s (hover to see current wind gust speed)